Location: Dunedin
(45.8670°S, 170.5000°E)
Time: 22:43:33
(UTC+13:00)

Resurs 01 Rocket - Pass Details

Date: 24 January 2019
Orbit: 635 x 644 km, 98.0° (Epoch: 17 October)

Event Time Altitude Azimuth Distance (km) Brightness Sun altitude
Rises 23:11:16 0° 171° (S) 2,983 5.7 -15.6°
Reaches altitude 10° 23:13:31 10° 174° (S) 2,064 4.9 -15.9°
Maximum altitude 23:17:56 58° 252° (WSW) 760 2.2 -16.4°
Drops below altitude 10° 23:22:17 10° 330° (NNW) 2,033 4.0 -16.8°
Enters shadow 23:23:09 - 332° (NNW) 2,382 4.3 -16.9°
